map of BKG home
BKG - Airport
Location
City:  Branson, Missouri, United States
ICAO:KBBG
IATA:BKG
FAA LID:BBG

Details
Type:Airport (Part 139 Class I)
Use:Public/Civil
Latitude:3631'55"N (36.532083)
Longitude:9312'02"W (-93.200543)
Datum:WGS 1984
Elevation:1302 ft (397 m)
Variation:0.76E (WMM2015v2 magnetic declination)
-0.08 annual change
Runways:1
Longest:7140 × 150 ft (2176 × 45.5 m), paved

Time
Time Zone:UTC-6 (DST-5)
Local Time:

Weather
METAR:KBBG 041353Z 19009G16KT 10SM FEW250 17/13 A2973
TAF:KBBG 041120Z 0412/0512 17005KT P6SM SCT025 BKN040 WS020/22040KT
FM041400 19010G15KT P6SM BKN035
FM041900 25012KT P6SM BKN030
FM050000 35006KT P6SM OVC015

Related Locations
Nearby:
Farthest:YAUG: 10842 mi / 17448 km
Augusta [Augusta Airport], WA, AU

Find:

   beyond  
but within

Other Information
Maps:
NOTAMs:
Links:
Sources:

  
  • flag of United States
  • flag of Missouri
  

Airport Diagram

Airport diagram for BKG

Airport diagram PDF from FAA

Sectional Chart

Flight Planning
at skyvector.com

Satellite Image

Google Maps Satellite view

 

Copyright © 2004-2019 Karl L. Swartz. All rights reserved.
The Great Circle Mapper name and logo are trademarks of the Great Circle Mapper.
All other trademarks mentioned herein belong to their respective owners.
Please see credits for attibutions and further copyright information.

  Follow gcmap on Facebook Follow gcmap on Twitter GCmap on LinkedIn

hCard Microformat

Geo Microformat